Regional Weather Roundup
Issued by NWS

Home | Current Version | Previous Version | Graphics & Text | Print | Product List | Glossary On
Versions: 1 2 3 4 5 6 7 8 9 10 11 12 13 14 15 16 17 18 19 20 21 22 23 24 25 26 27 28 29 30 31 32 33 34 35 36 37 38 39 40 41 42 43 44 45 46 47 48 49 50
000
ASUS43 KIND 122159
RWRIN

WEATHER ROUNDUP FOR INDIANA
NATIONAL WEATHER SERVICE INDIANAPOLIS IN
500 PM EST TUE DEC 12 2017

NOTE: "FAIR" INDICATES FEW OR NO CLOUDS BELOW 12,000 FEET WITH NO
SIGNIFICANT WEATHER AND/OR OBSTRUCTIONS TO VISIBILITY.

* - STATION DOES NOT REPORT WEATHER SUCH AS PRECIPITATION OR FOG.

+ - STATION NOT QUALITY CONTROLLED BY THE NATIONAL WEATHER SERVICE.
    USE DATA WITH CAUTION...ESPECIALLY DEWPOINT AND RELATIVE
    HUMIDITY OBSERVATIONS.

INZ001>003-010>013-019-020-122300-
NORTHWEST INDIANA

CITY           SKY/WX    TMP DP  RH WIND       PRES   REMARKS
GARY /AIRPORT/ PTCLDY    23   7  50 W12G23    30.05S WCI  12
KNOX *+        MOCLDY    21  10  63 NW9       30.01S WCI  11
MICHIGAN CITY+ CLOUDY    23  12  63 NW12G18   30.02R WCI  12
MONTICELLO +   PTCLDY    23   5  46 NW15      30.02S WCI  10
RENSSELAER +   CLEAR     23   3  42 W16G22    30.04R WCI  10

$$

LMZ046-743>745-122300-
SOUTHERN LAKE MICHIGAN

STATION/POSITION TIME  TEMP    WIND        PRES    WAVE
                       AIR SEA DIR/SP/G            HT
                 (UTC) (F)     (DEG/KT/KT) (MB)    (FT)
BURNS HARBOR     2140   23     300/ 16/ 20 1016.9S
MICHIGAN CITY    2130   22     290/ 21/ 26   N/A

$$

INZ004-005-014>016-021>024-122300-
NORTH CENTRAL INDIANA

CITY           SKY/WX    TMP DP  RH WIND       PRES   REMARKS
ELKHART        LGT SNOW  21  12  68 NW12G17   29.96R WCI   9
GOSHEN         CLOUDY    20  13  74 W9        29.95S WCI   9
PERU/GRISSOM   PTCLDY    22   6  50 NW15      29.98R WCI   9
SOUTH BEND     MIX PCPN  20  13  74 NW18      29.98R VSB 1/2 WCI   5

$$

INZ006>009-017-018-025>027-122300-
NORTHEAST INDIANA

CITY           SKY/WX    TMP DP  RH WIND       PRES   REMARKS
FORT WAYNE     LGT SNOW  20  15  81 W12       29.95R WCI   8
KENDALLVILLE + MOCLDY    19  13  78 NW8       29.92R WCI   9

$$

INZ028-029-035-036-043>045-051>053-122300-
WEST CENTRAL INDIANA

CITY           SKY/WX    TMP DP  RH WIND       PRES   REMARKS
CRAWFORDSVL +  CLEAR     22   6  49 W15         N/A  WCI   9
GREENCASTLE +  CLEAR     27   5  39 W8        30.04S WCI  18
LAFAYETTE      CLEAR     23   8  52 NW13G22   30.04R WCI  11
TERRE HAUTE    CLEAR     27   5  39 NW10      30.08R WCI  17

$$

INZ030>032-037>040-046>048-054>057-064-065-122300-
CENTRAL INDIANA

CITY           SKY/WX    TMP DP  RH WIND       PRES   REMARKS
COLUMBUS       CLEAR     27   1  33 NW16G30   30.02R WCI  14
INDIANAPOLIS   PTCLDY    25   7  46 W21G26    30.02R WCI  11
-EAGLE CREEK   CLEAR     25   7  46 NW17G24   30.01R WCI  12
KOKOMO +       CLEAR     23   8  52 NW17      29.99S WCI   9
MT COMFORT *+  PTCLDY    23  10  58 NW13G25   29.99S WCI  11
SHELBYVILLE    PTCLDY    26   6  42 NW16G25   29.99R WCI  14

$$

INZ033-034-041-042-049-050-058-059-122300-
EAST CENTRAL INDIANA

CITY           SKY/WX    TMP DP  RH WIND       PRES   REMARKS
MUNCIE         MOCLDY    24   6  46 NW18      29.96S WCI  10
RICHMOND +     CLOUDY    23  10  58 NW20G25   29.94R WCI   8

$$

INZ060-061-067>069-081>083-085>088-122300-
SOUTHWEST INDIANA

CITY           SKY/WX    TMP DP  RH WIND       PRES   REMARKS
EVANSVILLE     CLEAR     32   9  38 NW8G18    30.11S WCI  25
HUNTINGBURG +  CLEAR     30  11  45 NW14      30.08S WCI  19

$$

INZ062-063-066-070>080-084-089>092-122300-
SOUTH CENTRAL AND SOUTHEAST INDIANA

CITY           SKY/WX    TMP DP  RH WIND       PRES   REMARKS
BLOOMINGTON    PTCLDY    26   5  40 NW13G18   30.03S WCI  15
SEYMOUR +      PTCLDY    28   7  40 W12G17    30.03R WCI  18

$$





USA.gov is the U.S. government's official web portal to all federal, state and local government web resources and services.